572  
ASUS44 KOUN 250600  
RWROK  
 
WEATHER ROUNDUP FOR OKLAHOMA  
NATIONAL WEATHER SERVICE NORMAN OK  
100 AM CDT THU AUG 25 2016  
 
NOTE: "FAIR" INDICATES FEW OR NO CLOUDS BELOW 12,000 FEET WITH NO  
SIGNIFICANT WEATHER AND/OR S TO VISIBILITY
.  
 
OKZ001>007-009>012-014-015-017-250700-  
NORTHWEST OKLAHOMA AND THE PANHANDLE  
 
CITY SKY/WX TMP DP RH WIND PRES REMARKS
 
GAGE PTCLDY 75 65 70 S16 30.03S  
6HR MIN TEMP: 73; 6HR MAX TEMP: 86;  
 
GUYMON LGT RAIN 64 62 93 N15 30.11F  

 
 
OKZ016-021>023-033>039-044-045-250700-  
SOUTHWEST OKLAHOMA  
 
CITY SKY/WX TMP DP RH WIND PRES REMARKS
 
LAWTON/REGL CLEAR 79 67 66 S10 30.05S  
6HR MIN TEMP: 75; 6HR MAX TEMP: 93;  
 
FREDERICK CLEAR 73 67 81 E7 30.02S  
CLINTON PTCLDY 71 67 87 S7 30.06F  
HOBART CLEAR 72 66 81 S8 30.04F  
ALTUS AFB CLEAR 70 66 88 E3 30.02F  

 
 
OKZ018>020-024>031-250700-  
CENTRAL OKLAHOMA  
 
CITY SKY/WX TMP DP RH WIND PRES REMARKS
 
OKLAHOMA CITY PTCLDY 78 69 73 S9 30.04S  
6HR MIN TEMP: 78; 6HR MAX TEMP: 90;  
 
OKC/WILEY POST CLEAR 81 68 64 S15 30.04R  
OKC/TINKER AFB CLEAR 78 68 70 S13 30.04S  
STILLWATER CLEAR 81 67 62 S10 30.02  
GUTHRIE CLEAR 82 68 62 S9 30.03R  

 
 
OKZ008-013-054>072-250700-  
NORTHEAST OKLAHOMA  
 
CITY SKY/WX TMP DP RH WIND PRES REMARKS
 
TULSA PTCLDY 82 68 62 S12 30.02R  
6HR MIN TEMP: 82; 6HR MAX TEMP: 94;  
 
TULSA/JONES CLEAR 81 69 67 S6 30.03R  
PONCA CITY MOCLDY 71 67 87 N3 30.03R  
BARTLESVILLE MOCLDY 78 67 68 CALM 30.04R  
MUSKOGEE CLEAR 74 67 78 SE5 30.06R  

 
 
OKZ032-040>043-046>053-073>077-250700-  
SOUTH CENTRAL/SOUTHEAST OKLAHOMA  
 
CITY SKY/WX TMP DP RH WIND PRES REMARKS
 
MCALESTER CLEAR 78 69 73 S5 30.06F  

 
 
 
 
CLICK HERE TO GO TO PREVIOUS BULLETINS.

The Nexlab OK Page Main Text Page